Вернуться в каталог

FENGYUN 1C DEB

АктивенSSO
NORAD 30956·DEBRIS·🇨🇳 China

Запущен May 10, 1999 с Taiyuan Satellite Launch Center

Loading…

Ближайшие Пролёты (ближайшие 24 часа)

TLE

СвежийSource: Space-Track

Эпоха: Sep 14, 2026, 13:47 UTC

1 30956U 99025BAW 26257.57472751  .00000830  00000-0  44629-3 0  9997
2 30956  98.7367 291.0149 0048449 274.6441 239.6032 14.15034395  2088

Отслеживайте FENGYUN 1C DEB в реальном времени с AllMySat

Download on the App Store